Time,TemperatureF,DewpointF,PressureIn,WindDirection,WindDirectionDegrees,WindSpeedMPH,WindSpeedGustMPH,Humidity,HourlyPrecipIn,Conditions,Clouds,dailyrainin,SoftwareType,DateUTC
2013-11-21 00:12:00,56.0,54.0,29.74,SE,138,0.0,-999.0,94,-99.99,,,-99.99,,2013-11-21 08:12:00,
2013-11-21 00:21:00,56.0,54.0,29.74,SE,138,0.0,-999.0,94,-99.99,,,-99.99,,2013-11-21 08:21:00,
2013-11-21 00:52:00,56.0,54.0,29.73,SE,138,0.0,-999.0,94,-99.99,,,-99.99,,2013-11-21 08:52:00,
2013-11-21 01:22:00,56.0,54.0,29.72,SE,138,0.0,-999.0,94,-99.99,,,-99.99,,2013-11-21 09:22:00,
2013-11-21 01:43:00,56.0,54.0,29.72,SE,138,0.0,-999.0,94,-99.99,,,-99.99,,2013-11-21 09:43:00,
2013-11-21 01:53:00,56.0,54.0,29.71,SE,138,0.0,-999.0,94,-99.99,,,-99.99,,2013-11-21 09:53:00,
2013-11-21 02:23:00,56.0,54.0,29.71,SE,138,0.0,-999.0,94,-99.99,,,-99.99,,2013-11-21 10:23:00,
2013-11-21 02:42:00,56.0,54.0,29.71,SE,138,0.0,-999.0,94,-99.99,,,-99.99,,2013-11-21 10:42:00,
2013-11-21 02:53:00,56.0,54.0,29.71,SE,138,0.0,-999.0,94,-99.99,,,-99.99,,2013-11-21 10:53:00,
2013-11-21 03:22:00,56.0,54.0,29.71,SE,138,0.0,-999.0,94,-99.99,,,-99.99,,2013-11-21 11:22:00,
2013-11-21 03:43:00,56.0,54.0,29.70,SE,138,0.0,-999.0,94,-99.99,,,-99.99,,2013-11-21 11:43:00,
2013-11-21 03:52:00,56.0,55.0,29.70,SE,138,0.0,-999.0,95,-99.99,,,-99.99,,2013-11-21 11:52:00,
2013-11-21 04:21:00,56.0,55.0,29.70,SE,138,0.0,-999.0,95,-99.99,,,-99.99,,2013-11-21 12:21:00,
2013-11-21 04:52:00,56.0,55.0,29.70,SE,138,0.0,-999.0,95,-99.99,,,-99.99,,2013-11-21 12:52:00,
2013-11-21 05:11:00,56.0,55.0,29.70,SE,138,0.0,-999.0,95,-99.99,,,-99.99,,2013-11-21 13:11:00,
2013-11-21 05:21:00,56.0,55.0,29.70,SE,138,0.0,-999.0,95,-99.99,,,-99.99,,2013-11-21 13:21:00,
2013-11-21 05:42:00,56.0,55.0,29.69,SE,138,0.0,-999.0,95,-99.99,,,-99.99,,2013-11-21 13:42:00,
2013-11-21 05:52:00,56.0,55.0,29.70,SE,138,0.0,-999.0,95,-99.99,,,-99.99,,2013-11-21 13:52:00,
2013-11-21 06:11:00,56.0,55.0,29.70,SE,138,0.0,-999.0,95,-99.99,,,-99.99,,2013-11-21 14:11:00,
2013-11-21 06:22:00,56.0,55.0,29.71,SE,138,0.0,-999.0,95,-99.99,,,-99.99,,2013-11-21 14:22:00,
2013-11-21 06:42:00,56.0,55.0,29.71,SE,138,0.0,-999.0,95,-99.99,,,-99.99,,2013-11-21 14:42:00,
2013-11-21 06:52:00,56.0,55.0,29.72,SE,138,0.0,-999.0,95,-99.99,,,-99.99,,2013-11-21 14:52:00,
2013-11-21 07:22:00,56.0,55.0,29.71,SE,138,0.0,-999.0,95,-99.99,,,-99.99,,2013-11-21 15:22:00,
2013-11-21 07:43:00,56.0,55.0,29.71,SE,138,0.0,-999.0,95,-99.99,,,-99.99,,2013-11-21 15:43:00,
2013-11-21 07:53:00,56.0,55.0,29.72,SE,138,0.0,-999.0,95,-99.99,,,-99.99,,2013-11-21 15:53:00,
2013-11-21 08:23:00,56.0,55.0,29.72,SE,138,0.0,-999.0,95,-99.99,,,-99.99,,2013-11-21 16:23:00,
2013-11-21 08:42:00,56.0,55.0,29.73,SE,138,0.0,-999.0,95,-99.99,,,-99.99,,2013-11-21 16:42:00,
2013-11-21 08:53:00,57.0,56.0,29.74,SE,138,0.0,-999.0,95,-99.99,,,-99.99,,2013-11-21 16:53:00,
2013-11-21 09:22:00,57.0,56.0,29.73,SE,138,0.0,-999.0,95,-99.99,,,-99.99,,2013-11-21 17:22:00,
2013-11-21 09:42:00,57.0,56.0,29.73,SE,138,0.0,-999.0,95,-99.99,,,-99.99,,2013-11-21 17:42:00,
2013-11-21 09:52:00,58.0,57.0,29.73,SE,138,0.0,-999.0,95,-99.99,,,-99.99,,2013-11-21 17:52:00,
2013-11-21 10:21:00,58.0,57.0,29.73,SE,138,0.0,-999.0,95,-99.99,,,-99.99,,2013-11-21 18:21:00,
2013-11-21 10:52:00,59.0,58.0,29.72,SE,138,0.0,-999.0,95,-99.99,,,-99.99,,2013-11-21 18:52:00,
2013-11-21 11:22:00,61.0,58.0,29.72,SE,137,0.0,-999.0,89,-99.99,,,-99.99,,2013-11-21 19:22:00,
2013-11-21 11:52:00,63.0,57.0,29.71,East,100,0.0,-999.0,81,-99.99,,,-99.99,,2013-11-21 19:52:00,
2013-11-21 12:21:00,64.0,56.0,29.70,ENE,78,0.0,-999.0,75,-99.99,,,-99.99,,2013-11-21 20:21:00,
2013-11-21 12:42:00,64.0,56.0,29.69,ESE,118,0.0,-999.0,76,-99.99,,,-99.99,,2013-11-21 20:42:00,
2013-11-21 12:52:00,66.0,56.0,29.69,ESE,112,0.0,-999.0,71,-99.99,,,-99.99,,2013-11-21 20:52:00,
2013-11-21 13:21:00,68.0,55.0,29.68,NE,44,0.0,-999.0,64,-99.99,,,-99.99,,2013-11-21 21:21:00,
2013-11-21 13:43:00,67.0,55.0,29.68,ENE,65,0.0,-999.0,66,-99.99,,,-99.99,,2013-11-21 21:43:00,
2013-11-21 13:54:00,67.0,55.0,29.68,ENE,66,0.0,-999.0,65,-99.99,,,-99.99,,2013-11-21 21:54:00,
2013-11-21 14:22:00,66.0,54.0,29.68,ENE,63,0.0,-999.0,66,-99.99,,,-99.99,,2013-11-21 22:22:00,
2013-11-21 14:42:00,64.0,54.0,29.68,East,88,0.0,-999.0,70,-99.99,,,-99.99,,2013-11-21 22:42:00,
2013-11-21 14:53:00,63.0,54.0,29.69,East,101,0.0,-999.0,72,-99.99,,,-99.99,,2013-11-21 22:53:00,
2013-11-21 15:22:00,62.0,53.0,29.69,South,187,0.0,-999.0,73,-99.99,,,-99.99,,2013-11-21 23:22:00,
2013-11-21 15:53:00,60.0,53.0,29.70,ENE,74,0.0,-999.0,77,-99.99,,,-99.99,,2013-11-21 23:53:00,
2013-11-21 16:11:00,60.0,53.0,29.70,ESE,109,0.0,-999.0,78,-99.99,,,-99.99,,2013-11-22 00:11:00,
2013-11-21 16:22:00,60.0,53.0,29.71,East,96,0.0,-999.0,78,-99.99,,,-99.99,,2013-11-22 00:22:00,
2013-11-21 16:41:00,59.0,52.0,29.71,ENE,59,0.0,-999.0,78,-99.99,,,-99.99,,2013-11-22 00:41:00,
2013-11-21 16:52:00,59.0,52.0,29.72,ENE,59,0.0,-999.0,78,-99.99,,,-99.99,,2013-11-22 00:52:00,
2013-11-21 17:22:00,59.0,52.0,29.72,ENE,59,0.0,-999.0,78,-99.99,,,-99.99,,2013-11-22 01:22:00,
2013-11-21 17:52:00,59.0,53.0,29.72,ENE,59,0.0,-999.0,80,-99.99,,,-99.99,,2013-11-22 01:52:00,
2013-11-21 18:21:00,58.0,53.0,29.73,ENE,59,0.0,-999.0,82,-99.99,,,-99.99,,2013-11-22 02:21:00,
2013-11-21 18:42:00,58.0,53.0,29.73,ENE,59,0.0,-999.0,83,-99.99,,,-99.99,,2013-11-22 02:42:00,
2013-11-21 18:53:00,58.0,53.0,29.73,ENE,59,0.0,-999.0,83,-99.99,,,-99.99,,2013-11-22 02:53:00,
2013-11-21 19:21:00,57.0,53.0,29.74,ENE,59,0.0,-999.0,85,-99.99,,,-99.99,,2013-11-22 03:21:00,
2013-11-21 19:43:00,56.0,52.0,29.74,ENE,59,0.0,-999.0,85,-99.99,,,-99.99,,2013-11-22 03:43:00,
2013-11-21 19:53:00,56.0,52.0,29.75,ENE,59,0.0,-999.0,86,-99.99,,,-99.99,,2013-11-22 03:53:00,
2013-11-21 20:13:00,56.0,52.0,29.75,ENE,59,0.0,-999.0,86,-99.99,,,-99.99,,2013-11-22 04:13:00,
2013-11-21 20:23:00,55.0,51.0,29.75,ENE,59,0.0,-999.0,86,-99.99,,,-99.99,,2013-11-22 04:23:00,
2013-11-21 20:43:00,55.0,51.0,29.75,ENE,59,0.0,-999.0,87,-99.99,,,-99.99,,2013-11-22 04:43:00,
2013-11-21 20:52:00,55.0,51.0,29.75,ENE,59,0.0,-999.0,85,-99.99,,,-99.99,,2013-11-22 04:52:00,
2013-11-21 21:22:00,54.0,47.0,29.75,SSW,196,0.0,-999.0,77,-99.99,,,-99.99,,2013-11-22 05:22:00,
2013-11-21 21:42:00,54.0,46.0,29.75,SSW,198,0.0,-999.0,74,-99.99,,,-99.99,,2013-11-22 05:42:00,
2013-11-21 21:52:00,55.0,45.0,29.76,SW,234,0.0,-999.0,69,-99.99,,,-99.99,,2013-11-22 05:52:00,
2013-11-21 22:21:00,55.0,43.0,29.76,SW,225,0.0,-999.0,65,-99.99,,,-99.99,,2013-11-22 06:21:00,
2013-11-21 22:42:00,56.0,44.0,29.76,SW,225,0.0,-999.0,64,-99.99,,,-99.99,,2013-11-22 06:42:00,
2013-11-21 22:52:00,56.0,43.0,29.76,WSW,244,0.0,-999.0,62,-99.99,,,-99.99,,2013-11-22 06:52:00,
2013-11-21 23:12:00,56.0,43.0,29.77,WSW,242,0.0,-999.0,61,-99.99,,,-99.99,,2013-11-22 07:12:00,
2013-11-21 23:21:00,56.0,42.0,29.77,NW,313,0.0,-999.0,60,-99.99,,,-99.99,,2013-11-22 07:21:00,
2013-11-21 23:41:00,56.0,42.0,29.76,West,266,0.0,-999.0,59,-99.99,,,-99.99,,2013-11-22 07:41:00,
2013-11-21 23:52:00,56.0,41.0,29.76,WSW,244,0.0,-999.0,58,-99.99,,,-99.99,,2013-11-22 07:52:00,